FW6082 Weather Reports


Display with metric or nautical units.
time (UTC)temp
F
wind
direction
speed
MPH
gust
MPH
rain 1hr
in
rain 24hr
in
rain mn
in
humidity
%
barometer
mb
20260507114526 47 281 0.0 0.0 0.00 0.00 0.00 82 1017.6
20260507113028 48 281 0.0 3.0 0.00 0.00 0.00 84 1017.5
20260507111522 48 203 0.0 1.0 0.00 0.00 0.00 81 1017.2
20260507110019 49 215 0.0 0.0 0.00 0.00 0.00 80 1017.1
20260507104517 50 211 0.0 2.0 0.00 0.00 0.00 81 1017.1
20260507103015 50 204 1.0 4.0 0.00 0.00 0.00 80 1017.0
20260507101516 50 192 0.0 3.0 0.00 0.00 0.00 76 1016.8
20260507100013 51 198 0.0 1.0 0.00 0.00 0.00 76 1016.8
20260507094508 51 198 0.0 3.0 0.00 0.00 0.00 75 1016.6
20260507093009 51 146 0.0 1.0 0.00 0.00 0.00 74 1016.4
20260507091503 52 152 0.0 1.0 0.00 0.00 0.00 70 1016.3
20260507090113 53 262 0.0 0.0 0.00 0.00 0.00 69 1016.1
20260507084557 53 263 0.0 0.0 0.00 0.00 0.00 69 1016.2
20260507083057 54 263 0.0 4.0 0.00 0.00 0.00 68 1016.2
20260507081555 54 199 0.0 1.0 0.00 0.00 0.00 69 1016.1
20260507080055 54 160 1.0 5.0 0.00 0.00 0.00 69 1016.3
20260507074558 54 278 2.0 8.0 0.00 0.00 0.00 69 1016.1
20260507073053 55 90 2.0 8.0 0.00 0.00 0.00 67 1016.0
20260507071552 55 175 2.0 13.0 0.00 0.00 0.00 66 1016.1
20260507070053 54 175 5.0 14.0 0.00 0.00 0.00 69 1016.0
20260507064605 55 161 5.0 15.0 0.00 0.00 0.00 68 1015.7
20260507063050 54 105 9.0 17.0 0.00 0.00 0.00 70 1015.5
20260507061542 54 159 2.0 11.0 0.00 0.00 0.00 72 1015.3
20260507060041 54 218 2.0 7.0 0.00 0.00 0.00 71 1015.4
20260507054541 54 170 1.0 8.0 0.00 0.00 0.00 71 1015.4
20260507053037 55 7 3.0 10.0 0.00 0.00 0.00 70 1015.4
20260507051533 56 23 0.0 4.0 0.00 0.00 0.00 65 1015.5
20260507050038 56 180 3.0 10.0 0.00 0.00 0.00 65 1015.6
20260507044530 56 180 3.0 17.0 0.00 0.00 0.00 66 1015.6
20260507043029 56 152 5.0 11.0 0.00 0.00 0.00 65 1015.5
20260507041539 56 90 3.0 14.0 0.00 0.00 0.00 65 1015.5
20260507040022 57 144 4.0 12.0 0.00 0.00 0.00 62 1015.5
20260507034521 57 90 4.0 14.0 0.00 0.00 0.00 60 1015.5
20260507033023 57 140 5.0 14.0 0.00 0.00 0.00 62 1015.5
20260507031520 57 151 3.0 12.0 0.00 0.00 0.00 61 1015.7
20260507030019 57 142 4.0 16.0 0.00 0.00 0.00 59 1015.7
20260507024519 57 170 5.0 13.0 0.00 0.00 0.00 60 1015.4
20260507023020 56 116 6.0 16.0 0.00 0.00 0.00 62 1015.4
20260507021517 57 129 4.0 18.0 0.00 0.00 0.00 62 1015.5
20260507020017 57 194 5.0 16.0 0.00 0.00 0.00 61 1015.3
20260507014524 57 145 7.0 19.0 0.00 0.00 0.00 60 1015.3
20260507013032 58 115 5.0 15.0 0.00 0.00 0.00 59 1015.4
20260507011530 59 159 7.0 17.0 0.00 0.00 0.00 56 1015.4
20260507010015 59 148 8.0 16.0 0.00 0.00 0.00 54 1015.3
20260507004517 59 140 6.0 16.0 0.00 0.00 0.00 52 1015.0
20260507003013 60 188 5.0 12.0 0.00 0.00 0.00 50 1014.9
20260507001513 60 175 8.0 19.0 0.00 0.00 0.00 48 1015.0
20260507000023 60 151 6.0 16.0 0.00 0.00 0.00 49 1014.7
20260506234512 60 81 5.0 17.0 0.00 0.00 0.00 47 1014.4
20260506233016 61 175 8.0 21.0 0.00 0.00 0.00 44 1014.5
20260506231513 62 170 4.0 13.0 0.00 0.00 0.00 40 1014.4
20260506230010 63 170 6.0 14.0 0.00 0.00 0.00 39 1014.5
20260506224509 63 132 10.0 16.0 0.00 0.00 0.00 37 1014.5
20260506223008 64 144 7.0 16.0 0.00 0.00 0.00 34 1014.1
20260506221510 64 105 7.0 19.0 0.00 0.00 0.00 34 1013.9
20260506220008 65 157 7.0 17.0 0.00 0.00 0.00 32 1014.0
20260506214506 66 72 9.0 16.0 0.00 0.00 0.00 31 1014.1
20260506213010 66 151 8.0 16.0 0.00 0.00 0.00 30 1014.2
20260506211505 67 170 7.0 13.0 0.00 0.00 0.00 30 1014.0
20260506210004 67 147 7.0 16.0 0.00 0.00 0.00 29 1014.0
20260506204505 68 161 8.0 15.0 0.00 0.00 0.00 28 1014.2
20260506203002 68 161 7.0 16.0 0.00 0.00 0.00 29 1014.3
20260506201502 70 150 7.0 15.0 0.00 0.00 0.00 29 1014.3
20260506200001 71 211 9.0 19.0 0.00 0.00 0.00 29 1014.1
20260506194615 71 142 9.0 19.0 0.00 0.00 0.00 30 1014.1
20260506193059 71 120 8.0 18.0 0.00 0.00 0.00 30 1013.6
20260506191600 72 204 9.0 20.0 0.00 0.00 0.00 29 1013.4
20260506190057 72 196 9.0 16.0 0.00 0.00 0.00 28 1013.7
20260506184556 72 149 7.0 16.0 0.00 0.00 0.00 27 1013.6
20260506183055 72 139 8.0 17.0 0.00 0.00 0.00 27 1013.5
20260506181554 73 126 7.0 17.0 0.00 0.00 0.00 26 1013.3
20260506180104 73 120 10.0 16.0 0.00 0.00 0.00 26 1013.5
20260506174552 73 148 8.0 17.0 0.00 0.00 0.00 25 1013.4
20260506173106 73 189 8.0 16.0 0.00 0.00 0.00 24 1013.5
20260506171557 72 117 10.0 14.0 0.00 0.00 0.00 25 1013.5
20260506170047 72 124 11.0 19.0 0.00 0.00 0.00 26 1014.3
20260506164545 72 180 9.0 15.0 0.00 0.00 0.00 26 1014.1
20260506163048 73 101 8.0 14.0 0.00 0.00 0.00 25 1014.0
20260506161552 73 115 6.0 13.0 0.00 0.00 0.00 23 1013.9
20260506160039 72 154 6.0 14.0 0.00 0.00 0.00 24 1014.5
20260506154535 70 119 2.0 9.0 0.00 0.00 0.00 29 1015.0
20260506153030 68 272 2.0 6.0 0.00 0.00 0.00 34 1015.5
20260506151527 67 211 0.0 1.0 0.00 0.00 0.00 36 1016.2
20260506150025 65 17 0.0 5.0 0.00 0.00 0.00 38 1016.6
20260506144518 64 266 2.0 6.0 0.00 0.00 0.00 40 1017.2
20260506143015 62 160 1.0 8.0 0.00 0.00 0.00 43 1017.5
20260506141512 61 297 1.0 8.0 0.00 0.00 0.00 46 1017.6
20260506140007 60 238 2.0 5.0 0.00 0.00 0.00 49 1017.7
20260506134510 58 119 2.0 8.0 0.00 0.00 0.00 51 1017.7
20260506133002 58 170 4.0 9.0 0.00 0.00 0.00 51 1017.4
20260506131611 59 240 2.0 7.0 0.00 0.00 0.00 48 1017.1
20260506130055 58 228 2.0 11.0 0.00 0.00 0.00 51 1016.9
20260506124551 53 75 1.0 4.0 0.00 0.00 0.00 58 1016.8
20260506123047 52 290 2.0 4.0 0.00 0.00 0.00 59 1016.4
20260506121544 52 345 0.0 1.0 0.00 0.00 0.00 59 1016.3
20260506120041 52 336 0.0 2.0 0.00 0.00 0.00 59 1016.2